FW8253 Weather Reports


time (UTC)temp
C
wind
direction
speed
KPH
gust
KPH
rain 1hr
cm
rain 24hr
cm
rain mn
cm
humidity
%
barometer
mb
20260505214044 26 222 0.0 0.0 0.00 0.00 0.00 50 1015.2
20260505213542 26 180 0.0 0.0 0.00 0.00 0.00 49 1015.2
20260505213038 27 232 0.0 0.0 0.00 0.00 0.00 49 1015.2
20260505212534 27 161 0.0 0.0 0.00 0.00 0.00 49 1015.3
20260505212032 27 198 0.0 0.0 0.00 0.00 0.00 46 1015.4
20260505211529 28 228 0.0 0.0 0.00 0.00 0.00 45 1015.1
20260505211025 28 220 0.0 0.0 0.00 0.00 0.00 43 1015.1
20260505210522 29 218 0.0 0.0 0.00 0.00 0.00 45 1015.5
20260505210020 29 225 0.0 0.0 0.00 0.00 0.00 46 1015.3
20260505205518 30 246 0.0 0.0 0.00 0.00 0.00 44 1015.5
20260505205014 28 238 0.0 0.0 0.00 0.00 0.00 44 1015.6
20260505204512 30 232 0.0 0.0 0.00 0.00 0.00 41 1015.4
20260505204009 29 230 0.0 0.0 0.00 0.00 0.00 42 1015.6
20260505203505 29 239 0.0 0.0 0.00 0.00 0.00 40 1015.5
20260505203002 30 234 0.0 0.0 0.00 0.00 0.00 42 1015.4
20260505202459 30 242 0.0 0.0 0.00 0.00 0.00 45 1015.7
20260505201954 30 225 0.0 0.0 0.00 0.00 0.00 42 1015.6
20260505201452 30 203 0.0 0.0 0.00 0.00 0.00 45 1015.7
20260505200949 29 214 0.0 0.0 0.00 0.00 0.00 44 1015.8
20260505200447 30 46 0.0 0.0 0.00 0.00 0.00 43 1016.0
20260505195942 29 247 0.0 0.0 0.00 0.00 0.00 42 1016.1
20260505195440 28 226 0.0 0.0 0.00 0.00 0.00 48 1016.3
20260505194937 28 230 0.0 0.0 0.00 0.00 0.00 44 1016.0
20260505194434 28 345 0.0 0.0 0.00 0.00 0.00 42 1016.4
20260505193934 28 239 0.0 0.0 0.00 0.00 0.00 48 1016.3
20260505193432 28 228 0.0 0.0 0.00 0.00 0.00 45 1016.4
20260505192930 27 227 0.0 0.0 0.00 0.00 0.00 47 1016.2
20260505192428 28 224 0.0 0.0 0.00 0.00 0.00 47 1016.5
20260505191925 30 207 0.0 0.0 0.00 0.00 0.00 44 1016.5
20260505191424 30 231 0.0 0.0 0.00 0.00 0.00 43 1016.7
20260505190920 29 170 0.0 0.0 0.00 0.00 0.00 41 1016.8
20260505190415 28 217 0.0 0.0 0.00 0.00 0.00 49 1017.0
20260505185911 28 296 0.0 0.0 0.00 0.00 0.00 44 1017.0
20260505185409 28 205 0.0 0.0 0.00 0.00 0.00 47 1017.2
20260505184904 28 212 0.0 0.0 0.00 0.00 0.00 45 1017.0
20260505184401 27 242 0.0 0.0 0.00 0.00 0.00 45 1017.3
20260505183858 28 240 0.0 0.0 0.00 0.00 0.00 47 1017.5
20260505183355 29 239 0.0 0.0 0.00 0.00 0.00 40 1017.5
20260505182852 28 279 0.0 0.0 0.00 0.00 0.00 40 1017.7
20260505182349 29 250 0.0 0.0 0.00 0.00 0.00 46 1017.8
20260505181845 30 104 0.0 0.0 0.00 0.00 0.00 45 1017.7
20260505181343 29 255 0.0 0.0 0.00 0.00 0.00 43 1017.7
20260505180839 28 233 0.0 0.0 0.00 0.00 0.00 48 1017.9
20260505180336 28 139 0.0 0.0 0.00 0.00 0.00 43 1018.0
20260505175832 27 260 0.0 0.0 0.00 0.00 0.00 48 1017.8
20260505175329 28 152 0.0 0.0 0.00 0.00 0.00 42 1018.2
20260505174825 28 200 0.0 0.0 0.00 0.00 0.00 46 1018.2
20260505174323 29 225 0.0 0.0 0.00 0.00 0.00 49 1017.9
20260505173819 28 210 0.0 0.0 0.00 0.00 0.00 46 1017.9
20260505173315 29 226 0.0 0.0 0.00 0.00 0.00 49 1018.1
20260505172813 28 275 0.0 0.0 0.00 0.00 0.00 46 1018.1
20260505172310 28 211 0.0 0.0 0.00 0.00 0.00 50 1018.0
20260505171804 27 296 0.0 0.0 0.00 0.00 0.00 45 1018.0
20260505171301 28 282 0.0 0.0 0.00 0.00 0.00 46 1018.0
20260505170758 28 259 0.0 0.0 0.00 0.00 0.00 45 1018.1
20260505170255 28 209 0.0 0.0 0.00 0.00 0.00 49 1018.0
20260505165755 27 257 0.0 0.0 0.00 0.00 0.00 47 1018.1
20260505165251 27 264 0.0 0.0 0.00 0.00 0.00 47 1018.3
20260505164747 26 321 0.0 0.0 0.00 0.00 0.00 52 1018.4
20260505164245 26 231 0.0 0.0 0.00 0.00 0.00 56 1018.4
20260505163743 27 219 0.0 0.0 0.00 0.00 0.00 52 1018.6
20260505163241 27 224 0.0 0.0 0.00 0.00 0.00 54 1018.5
20260505162738 27 260 0.0 0.0 0.00 0.00 0.00 54 1018.5
20260505162235 27 10 0.0 0.0 0.00 0.00 0.00 54 1018.7
20260505161732 27 204 0.0 0.0 0.00 0.00 0.00 57 1018.6
20260505161230 27 158 0.0 0.0 0.00 0.00 0.00 58 1018.6
20260505160727 26 156 0.0 0.0 0.00 0.00 0.00 58 1018.8
20260505160225 25 197 0.0 0.0 0.00 0.00 0.00 60 1018.5
20260505153203 25 286 0.0 0.0 0.00 0.00 0.00 58 1019.3
20260505152700 25 199 0.0 0.0 0.00 0.00 0.00 62 1019.2
20260505152156 25 225 0.0 0.0 0.00 0.00 0.00 61 1019.0
20260505151651 25 184 0.0 0.0 0.00 0.00 0.00 61 1019.2
20260505151149 25 221 0.0 0.0 0.00 0.00 0.00 64 1019.0
20260505150645 25 209 0.0 0.0 0.00 0.00 0.00 62 1019.0
20260505150142 25 158 0.0 0.0 0.00 0.00 0.00 64 1019.3
20260505140611 21 231 0.0 0.0 0.00 0.00 0.00 74 1019.2
20260505140108 21 184 0.0 0.0 0.00 0.00 0.00 74 1019.0
20260505125024 16 164 0.0 0.0 0.00 0.00 0.00 88 1019.4
20260505124521 15 195 0.0 0.0 0.00 0.00 0.00 95 1019.1
20260505124017 14 169 0.0 0.0 0.00 0.00 0.00 97 1018.9
20260505123514 14 223 0.0 0.0 0.00 0.00 0.00 99 1019.0
20260505123010 13 187 0.0 0.0 0.00 0.00 0.00 99 1019.2
20260505122507 13 152 0.0 0.0 0.00 0.00 0.00 99 1019.0
20260505122004 13 181 0.0 0.0 0.00 0.00 0.00 99 1019.1
20260505121501 12 185 0.0 0.0 0.00 0.00 0.00 99 1019.0
20260505120957 12 185 0.0 0.0 0.00 0.00 0.00 99 1018.9
20260505120453 11 185 0.0 0.0 0.00 0.00 0.00 99 1018.8
20260505115952 11 185 0.0 0.0 0.00 0.00 0.00 99 1018.8
20260505115449 11 185 0.0 0.0 0.00 0.00 0.00 99 1018.7
20260505114947 11 185 0.0 0.0 0.00 0.00 0.00 99 1018.7
20260505114443 11 185 0.0 0.0 0.00 0.00 0.00 99 1018.6
20260505113940 10 185 0.0 0.0 0.00 0.00 0.00 99 1018.6
20260505113436 10 185 0.0 0.0 0.00 0.00 0.00 99 1018.5
20260505112932 10 185 0.0 0.0 0.00 0.00 0.00 99 1018.7
20260505112430 10 185 0.0 0.0 0.00 0.00 0.00 99 1018.6
20260505111926 10 185 0.0 0.0 0.00 0.00 0.00 99 1018.7
20260505111420 10 185 0.0 0.0 0.00 0.00 0.00 99 1018.5
20260505110917 10 185 0.0 0.0 0.00 0.00 0.00 99 1018.5
20260505110414 10 185 0.0 0.0 0.00 0.00 0.00 99 1018.3
20260505101845 10 185 0.0 0.0 0.00 0.00 0.00 99 1017.9
20260505101339 10 185 0.0 0.0 0.00 0.00 0.00 99 1018.1
20260505100835 10 180 0.0 0.0 0.00 0.00 0.00 99 1018.0
20260505100333 10 181 0.0 0.0 0.00 0.00 0.00 99 1018.1
20260505095828 10 195 0.0 0.0 0.00 0.00 0.00 99 1018.0
20260505095326 10 195 0.0 0.0 0.00 0.00 0.00 99 1018.1
20260505094821 10 195 0.0 0.0 0.00 0.00 0.00 99 1018.1
20260505094319 10 195 0.0 0.0 0.00 0.00 0.00 99 1018.2
20260505093814 10 195 0.0 0.0 0.00 0.00 0.00 99 1018.1
20260505093312 10 194 0.0 0.0 0.00 0.00 0.00 99 1018.0
20260505092808 10 195 0.0 0.0 0.00 0.00 0.00 99 1017.9
20260505092307 10 195 0.0 0.0 0.00 0.00 0.00 99 1017.9
20260505091804 10 195 0.0 0.0 0.00 0.00 0.00 99 1018.0
20260505091302 10 195 0.0 0.0 0.00 0.00 0.00 99 1018.1
20260505090800 10 195 0.0 0.0 0.00 0.00 0.00 99 1017.9
20260505090258 10 195 0.0 0.0 0.00 0.00 0.00 99 1017.9
20260505085755 10 195 0.0 0.0 0.00 0.00 0.00 99 1018.0
20260505085253 10 195 0.0 0.0 0.00 0.00 0.00 99 1017.9
20260505084750 10 195 0.0 0.0 0.00 0.00 0.00 99 1018.0
20260505084249 10 195 0.0 0.0 0.00 0.00 0.00 99 1017.8
20260505083745 10 194 0.0 0.0 0.00 0.00 0.00 99 1017.6
20260505083242 10 195 0.0 0.0 0.00 0.00 0.00 99 1017.8
20260505082739 10 195 0.0 0.0 0.00 0.00 0.00 99 1017.6
20260505082236 10 195 0.0 0.0 0.00 0.00 0.00 99 1017.7
20260505081732 10 195 0.0 0.0 0.00 0.00 0.00 98 1017.7
20260505081229 10 195 0.0 0.0 0.00 0.00 0.00 98 1017.6
20260505080726 10 195 0.0 0.0 0.00 0.00 0.00 98 1017.7
20260505080221 10 195 0.0 0.0 0.00 0.00 0.00 98 1017.8
20260505075717 10 194 0.0 0.0 0.00 0.00 0.00 98 1017.7
20260505075215 10 195 0.0 0.0 0.00 0.00 0.00 98 1017.7
20260505074712 11 195 0.0 0.0 0.00 0.00 0.00 98 1017.6
20260505074209 11 195 0.0 0.0 0.00 0.00 0.00 98 1017.7
20260505073707 11 194 0.0 0.0 0.00 0.00 0.00 98 1017.2
20260505073204 11 195 0.0 0.0 0.00 0.00 0.00 98 1017.4
20260505072700 11 194 0.0 0.0 0.00 0.00 0.00 98 1017.4
20260505072156 11 195 0.0 0.0 0.00 0.00 0.00 97 1017.2
20260505071652 11 195 0.0 0.0 0.00 0.00 0.00 97 1017.4
20260505071150 11 195 0.0 0.0 0.00 0.00 0.00 97 1017.7
20260505070647 11 195 0.0 0.0 0.00 0.00 0.00 97 1017.8
20260505070143 11 195 0.0 0.0 0.00 0.00 0.00 97 1017.4
20260505065639 11 195 0.0 0.0 0.00 0.00 0.00 96 1017.6
20260505065136 11 195 0.0 0.0 0.00 0.00 0.00 96 1017.6
20260505064633 11 195 0.0 0.0 0.00 0.00 0.00 96 1017.8
20260505064131 11 195 0.0 0.0 0.00 0.00 0.00 95 1017.6
20260505063628 11 195 0.0 0.0 0.00 0.00 0.00 95 1017.7
20260505063124 11 195 0.0 0.0 0.00 0.00 0.00 95 1017.7
20260505062621 11 195 0.0 0.0 0.00 0.00 0.00 94 1017.6
20260505062118 11 195 0.0 0.0 0.00 0.00 0.00 94 1017.6
20260505061615 11 195 0.0 0.0 0.00 0.00 0.00 93 1017.9
20260505061113 12 195 0.0 0.0 0.00 0.00 0.00 93 1017.8
20260505060610 12 195 0.0 0.0 0.00 0.00 0.00 93 1017.8
20260505060107 12 195 0.0 0.0 0.00 0.00 0.00 93 1017.8
20260505055602 12 195 0.0 0.0 0.00 0.00 0.00 92 1017.8
20260505055059 12 195 0.0 0.0 0.00 0.00 0.00 92 1018.0
20260505054556 12 195 0.0 0.0 0.00 0.00 0.00 91 1018.0
20260505054055 12 195 0.0 0.0 0.00 0.00 0.00 91 1017.8
20260505053551 12 195 0.0 0.0 0.00 0.00 0.00 90 1017.8
20260505053048 12 195 0.0 0.0 0.00 0.00 0.00 89 1017.8
20260505052545 13 195 0.0 0.0 0.00 0.00 0.00 89 1017.8
20260505052043 13 195 0.0 0.0 0.00 0.00 0.00 88 1017.8
20260505051539 13 195 0.0 0.0 0.00 0.00 0.00 88 1017.9
20260505051037 13 195 0.0 0.0 0.00 0.00 0.00 88 1017.8
20260505050535 13 195 0.0 0.0 0.00 0.00 0.00 87 1018.1
20260505041503 15 198 0.0 0.0 0.00 0.00 0.00 82 1018.1
20260505041000 15 198 0.0 0.0 0.00 0.00 0.00 81 1018.1
20260505040457 15 194 0.0 0.0 0.00 0.00 0.00 80 1018.2
20260505035954 15 203 0.0 0.0 0.00 0.00 0.00 80 1017.9
20260505035450 15 209 0.0 0.0 0.00 0.00 0.00 80 1018.3
20260505034948 15 209 0.0 0.0 0.00 0.00 0.00 80 1018.2
20260505034444 15 209 0.0 0.0 0.00 0.00 0.00 80 1018.2
20260505033941 15 209 0.0 0.0 0.00 0.00 0.00 80 1018.1
20260505033438 15 209 0.0 0.0 0.00 0.00 0.00 81 1018.3
20260505032936 15 209 0.0 0.0 0.00 0.00 0.00 81 1018.1
20260505032433 15 209 0.0 0.0 0.00 0.00 0.00 82 1018.1
20260505031929 15 210 0.0 0.0 0.00 0.00 0.00 82 1018.2
20260505031426 15 209 0.0 0.0 0.00 0.00 0.00 81 1017.9
20260505030923 15 210 0.0 0.0 0.00 0.00 0.00 81 1018.2
20260505030419 15 210 0.0 0.0 0.00 0.00 0.00 80 1018.4
20260505025915 15 207 0.0 0.0 0.00 0.00 0.00 81 1018.2
20260505025412 15 206 0.0 0.0 0.00 0.00 0.00 81 1018.5
20260505024911 15 207 0.0 0.0 0.00 0.00 0.00 80 1018.2
20260505024408 16 206 0.0 0.0 0.00 0.00 0.00 81 1018.0
20260505023905 16 223 0.0 0.0 0.00 0.00 0.00 81 1018.1
20260505023402 16 207 0.0 0.0 0.00 0.00 0.00 81 1017.9
20260505022859 16 175 0.0 0.0 0.00 0.00 0.00 82 1017.9
20260505022356 16 175 0.0 0.0 0.00 0.00 0.00 81 1017.9
20260505021854 16 175 0.0 0.0 0.00 0.00 0.00 81 1018.1
20260505021350 16 175 0.0 0.0 0.00 0.00 0.00 82 1017.8
20260505020846 16 175 0.0 0.0 0.00 0.00 0.00 81 1017.9
20260505020341 16 175 0.0 0.0 0.00 0.00 0.00 82 1017.8
20260505015839 16 175 0.0 0.0 0.00 0.00 0.00 81 1017.6
20260505015336 16 175 0.0 0.0 0.00 0.00 0.00 81 1017.6
20260505014833 16 175 0.0 0.0 0.00 0.00 0.00 81 1017.6
20260505014330 16 175 0.0 0.0 0.00 0.00 0.00 81 1017.4
20260505013826 16 177 0.0 0.0 0.00 0.00 0.00 81 1017.4
20260505013324 16 182 0.0 0.0 0.00 0.00 0.00 81 1017.5
20260505012822 16 182 0.0 0.0 0.00 0.00 0.00 82 1017.1
20260505012319 16 183 0.0 0.0 0.00 0.00 0.00 83 1017.2
20260505011815 16 182 0.0 0.0 0.00 0.00 0.00 83 1017.1
20260505011312 16 182 0.0 0.0 0.00 0.00 0.00 85 1017.1
20260505010808 16 182 0.0 0.0 0.00 0.00 0.00 87 1016.9
20260505010304 16 182 0.0 0.0 0.00 0.00 0.00 87 1016.8
20260505005801 16 182 0.0 0.0 0.00 0.00 0.00 87 1016.9
20260505005258 17 183 0.0 0.0 0.00 0.00 0.00 86 1016.6
20260505004755 17 183 0.0 0.0 0.00 0.00 0.00 85 1016.6
20260505004251 17 183 0.0 0.0 0.00 0.00 0.00 84 1016.4
20260505003748 17 183 0.0 0.0 0.00 0.00 0.00 84 1016.4
20260505003246 17 183 0.0 0.0 0.00 0.00 0.00 82 1016.4
20260505002742 18 183 0.0 0.0 0.00 0.00 0.00 81 1016.2
20260505002240 18 183 0.0 0.0 0.00 0.00 0.00 80 1016.4
20260505001737 18 183 0.0 0.0 0.00 0.00 0.00 77 1016.3
20260505001235 18 183 0.0 0.0 0.00 0.00 0.00 76 1016.3
20260505000731 19 183 0.0 0.0 0.00 0.00 0.00 74 1016.3
20260505000229 19 183 0.0 0.0 0.00 0.00 0.00 72 1016.3
20260504235725 20 183 0.0 0.0 0.00 0.00 0.00 71 1016.4
20260504235221 20 183 0.0 0.0 0.00 0.00 0.00 71 1016.3
20260504234719 20 183 0.0 0.0 0.00 0.00 0.00 70 1016.2
20260504234216 21 183 0.0 0.0 0.00 0.00 0.00 68 1016.2
20260504233712 21 183 0.0 0.0 0.00 0.00 0.00 66 1016.0
20260504233208 21 183 0.0 0.0 0.00 0.00 0.00 65 1015.9
20260504232706 21 183 0.0 0.0 0.00 0.00 0.00 63 1016.1
20260504232203 22 183 0.0 0.0 0.00 0.00 0.00 62 1016.1
20260504231659 22 183 0.0 0.0 0.00 0.00 0.00 63 1016.0
20260504231155 22 183 0.0 0.0 0.00 0.00 0.00 62 1016.1
20260504230652 23 183 0.0 0.0 0.00 0.00 0.00 61 1016.1
20260504230151 23 183 0.0 0.0 0.00 0.00 0.00 56 1015.9
20260504225649 23 183 0.0 0.0 0.00 0.00 0.00 55 1016.2
20260504225144 23 183 0.0 0.0 0.00 0.00 0.00 53 1016.2
20260504224642 23 184 0.0 0.0 0.00 0.00 0.00 50 1016.2
20260504224138 23 184 0.0 0.0 0.00 0.00 0.00 52 1016.2
20260504223636 24 184 0.0 0.0 0.00 0.00 0.00 47 1016.2
20260504223131 24 184 0.0 0.0 0.00 0.00 0.00 52 1016.2
20260504222628 24 184 0.0 0.0 0.00 0.00 0.00 53 1016.1
20260504222125 24 184 0.0 0.0 0.00 0.00 0.00 50 1016.4
20260504221623 24 184 0.0 0.0 0.00 0.00 0.00 49 1016.2
20260504221119 24 184 0.0 0.0 0.00 0.00 0.00 48 1016.5
20260504220616 25 184 0.0 0.0 0.00 0.00 0.00 44 1016.2
20260504220114 24 184 0.0 0.0 0.00 0.00 0.00 51 1016.4
20260504215609 25 184 0.0 0.0 0.00 0.00 0.00 48 1016.3
20260504215107 25 183 0.0 0.0 0.00 0.00 0.00 45 1016.2
20260504214603 25 210 0.0 0.0 0.00 0.00 0.00 45 1016.2